When you browse on this site, cookies collect data to enhance your experience and personalize the content and advertising you see.
Visit our Privacy Policy to learn more. By continuing to use the site, you agree to this use of cookies and data.
  • în România
  • Lista ţărilor
  • Pe 7 zile
  • Temperatura apei
  • Meteo pe hartă
  • Widget-uri
  • user-avatar
    Intrare

    Meteo pe oră la Sainte-Genevieve-des-Bois

    Astăzi, 21 August, Miercuri

    Timp Temperatura Precipitaţii Vânt Presiune Umiditate
    00:00 +16°C° 0 mm 2 m/s 763 mmHg 68%
    01:00 +15°C° 0 mm 2 m/s 763 mmHg 69%
    02:00 +15°C° 0 mm 2 m/s 763 mmHg 70%
    03:00 +14°C° 0 mm 2 m/s 763 mmHg 71%
    04:00 +14°C° 0 mm 2 m/s 763 mmHg 71%
    05:00 +14°C° 0 mm 2 m/s 763 mmHg 70%
    06:00 +15°C° 0 mm 2 m/s 763 mmHg 70%
    07:00 +17°C° 0 mm 2 m/s 763 mmHg 63%
    08:00 +19°C° 0 mm 2 m/s 763 mmHg 57%
    09:00 +21°C° 0 mm 2 m/s 763 mmHg 50%
    10:00 +23°C° 0 mm 2 m/s 763 mmHg 46%
    11:00 +24°C° 0 mm 2 m/s 763 mmHg 43%
    12:00 +25°C° 0 mm 2 m/s 762 mmHg 39%
    13:00 +25°C° 0 mm 2 m/s 762 mmHg 38%
    14:00 +26°C° 0 mm 2 m/s 762 mmHg 36%
    15:00 +26°C° 0 mm 2 m/s 761 mmHg 34%
    16:00 +25°C° 0 mm 2 m/s 761 mmHg 38%
    17:00 +24°C° 0 mm 2 m/s 761 mmHg 42%
    18:00 +23°C° 0 mm 2 m/s 761 mmHg 45%
    19:00 +21°C° 0 mm 2 m/s 761 mmHg 48%
    20:00 +20°C° 0 mm 2 m/s 761 mmHg 51%
    21:00 +18°C° 0 mm 2 m/s 761 mmHg 53%
    22:00 +18°C° 0 mm 2 m/s 761 mmHg 54%
    23:00 +17°C° 0 mm 2 m/s 761 mmHg 54%

    Mâine, 22 August, Joi

    Timp Temperatura Precipitaţii Vânt Presiune Umiditate
    00:00 +18°C° 0 mm 1 m/s 761 mmHg 55%
    01:00 +16°C° 0 mm 1 m/s 761 mmHg 55%
    02:00 +16°C° 0 mm 1 m/s 761 mmHg 56%
    03:00 +16°C° 0 mm 1 m/s 761 mmHg 56%
    04:00 +16°C° 0 mm 1 m/s 761 mmHg 57%
    05:00 +16°C° 0 mm 1 m/s 761 mmHg 57%
    06:00 +16°C° 0 mm 1 m/s 761 mmHg 57%
    07:00 +19°C° 0 mm 1 m/s 761 mmHg 51%
    08:00 +20°C° 0 mm 2 m/s 762 mmHg 45%
    09:00 +23°C° 0 mm 2 m/s 762 mmHg 39%
    10:00 +25°C° 0 mm 2 m/s 761 mmHg 37%
    11:00 +26°C° 0 mm 2 m/s 761 mmHg 34%
    12:00 +27°C° 0 mm 2 m/s 761 mmHg 31%
    13:00 +27°C° 0 mm 2 m/s 761 mmHg 30%
    14:00 +28°C° 0 mm 2 m/s 760 mmHg 29%
    15:00 +28°C° 0 mm 2 m/s 760 mmHg 28%
    16:00 +27°C° 0 mm 2 m/s 760 mmHg 32%
    17:00 +26°C° 0 mm 2 m/s 760 mmHg 36%
    18:00 +25°C° 0 mm 3 m/s 760 mmHg 41%
    19:00 +24°C° 0 mm 2 m/s 760 mmHg 44%
    20:00 +21°C° 0 mm 2 m/s 761 mmHg 48%
    21:00 +20°C° 0 mm 2 m/s 761 mmHg 51%
    22:00 +19°C° 0 mm 2 m/s 761 mmHg 54%
    23:00 +18°C° 0 mm 2 m/s 761 mmHg 56%

    Poimâine, 23 August, Vineri

    Timp Temperatura Precipitaţii Vânt Presiune Umiditate
    00:00 +18°C° 0 mm 2 m/s 761 mmHg 59%
    01:00 +17°C° 0 mm 2 m/s 761 mmHg 61%
    02:00 +17°C° 0 mm 2 m/s 760 mmHg 63%
    03:00 +16°C° 0 mm 2 m/s 760 mmHg 65%
    04:00 +16°C° 0 mm 2 m/s 760 mmHg 65%
    05:00 +16°C° 0 mm 2 m/s 760 mmHg 65%
    06:00 +16°C° 0 mm 2 m/s 760 mmHg 65%
    07:00 +18°C° 0 mm 2 m/s 760 mmHg 60%
    08:00 +20°C° 0 mm 2 m/s 760 mmHg 54%
    09:00 +22°C° 0 mm 3 m/s 760 mmHg 48%
    10:00 +25°C° 0 mm 3 m/s 760 mmHg 45%
    11:00 +26°C° 0 mm 3 m/s 759 mmHg 42%
    12:00 +28°C° 0 mm 3 m/s 759 mmHg 39%
    13:00 +29°C° 0 mm 3 m/s 759 mmHg 37%
    14:00 +29°C° 0 mm 3 m/s 758 mmHg 35%
    15:00 +30°C° 0 mm 3 m/s 758 mmHg 33%
    16:00 +29°C° 0 mm 3 m/s 758 mmHg 37%
    17:00 +28°C° 0 mm 3 m/s 758 mmHg 41%
    18:00 +27°C° 0 mm 3 m/s 758 mmHg 45%
    19:00 +25°C° 0 mm 3 m/s 758 mmHg 49%
    20:00 +24°C° 0 mm 3 m/s 758 mmHg 53%
    21:00 +21°C° 0 mm 2 m/s 758 mmHg 57%
    22:00 +21°C° 0 mm 2 m/s 758 mmHg 60%
    23:00 +20°C° 0 mm 2 m/s 757 mmHg 63%

    24 August, Sâmbătă

    Timp Temperatura Precipitaţii Vânt Presiune Umiditate
    00:00 +20°C° 0 mm 2 m/s 757 mmHg 66%
    01:00 +19°C° 0 mm 2 m/s 757 mmHg 69%
    02:00 +19°C° 0 mm 2 m/s 757 mmHg 71%
    03:00 +18°C° 0 mm 2 m/s 756 mmHg 74%
    04:00 +18°C° 0 mm 2 m/s 756 mmHg 74%
    05:00 +18°C° 0 mm 2 m/s 756 mmHg 75%
    06:00 +18°C° 0 mm 2 m/s 756 mmHg 75%
    07:00 +20°C° 0 mm 2 m/s 756 mmHg 68%
    08:00 +24°C° 0 mm 2 m/s 756 mmHg 60%
    09:00 +26°C° 0 mm 2 m/s 756 mmHg 53%
    10:00 +27°C° 0 mm 2 m/s 756 mmHg 47%
    11:00 +29°C° 0 mm 2 m/s 756 mmHg 41%
    12:00 +30°C° 0 mm 2 m/s 755 mmHg 36%
    13:00 +31°C° 0 mm 1 m/s 755 mmHg 33%
    14:00 +32°C° 0 mm 1 m/s 755 mmHg 30%
    15:00 +33°C° 0 mm 1 m/s 755 mmHg 27%
    16:00 +32°C° 0 mm 1 m/s 754 mmHg 30%
    17:00 +30°C° 0 mm 1 m/s 754 mmHg 33%
    18:00 +29°C° 0 mm 2 m/s 754 mmHg 36%
    19:00 +28°C° 0 mm 2 m/s 754 mmHg 39%
    20:00 +26°C° 0 mm 2 m/s 754 mmHg 43%
    21:00 +25°C° 0 mm 2 m/s 755 mmHg 47%
    22:00 +24°C° 0 mm 2 m/s 754 mmHg 50%
    23:00 +23°C° 0 mm 2 m/s 754 mmHg 52%

    25 August, Duminică

    Timp Temperatura Precipitaţii Vânt Presiune Umiditate
    00:00 +23°C° 0 mm 1 m/s 754 mmHg 54%
    01:00 +22°C° 0 mm 1 m/s 754 mmHg 56%
    02:00 +22°C° 0 mm 1 m/s 754 mmHg 59%
    03:00 +21°C° 0 mm 1 m/s 754 mmHg 61%
    04:00 +22°C° 0 mm 1 m/s 754 mmHg 62%
    05:00 +22°C° 0 mm 1 m/s 754 mmHg 63%
    06:00 +22°C° 0 mm 1 m/s 754 mmHg 63%
    07:00 +24°C° 0 mm 1 m/s 754 mmHg 56%
    08:00 +26°C° 0 mm 1 m/s 755 mmHg 49%
    09:00 +28°C° 0 mm 1 m/s 755 mmHg 42%
    10:00 +30°C° 0 mm 1 m/s 755 mmHg 37%
    11:00 +32°C° 0 mm 1 m/s 755 mmHg 32%
    12:00 +34°C° 0 mm 1 m/s 755 mmHg 27%
    13:00 +34°C° 0 mm 1 m/s 754 mmHg 25%
    14:00 +35°C° 0 mm 1 m/s 754 mmHg 24%
    15:00 +35°C° 0 mm 1 m/s 754 mmHg 22%
    16:00 +34°C° 0 mm 1 m/s 754 mmHg 25%
    17:00 +33°C° 0 mm 1 m/s 754 mmHg 28%
    18:00 +30°C° 0 mm 0 m/s 754 mmHg 30%
    19:00 +30°C° 0 mm 1 m/s 754 mmHg 34%
    20:00 +29°C° 0 mm 1 m/s 755 mmHg 37%
    21:00 +27°C° 0 mm 2 m/s 755 mmHg 40%
    22:00 +26°C° 0 mm 2 m/s 755 mmHg 44%
    23:00 +25°C° 0 mm 2 m/s 755 mmHg 47%

    26 August, Luni

    Timp Temperatura Precipitaţii Vânt Presiune Umiditate
    00:00 +24°C° 0 mm 2 m/s 755 mmHg 51%
    01:00 +24°C° 0 mm 2 m/s 755 mmHg 53%
    02:00 +23°C° 0 mm 2 m/s 755 mmHg 55%
    03:00 +21°C° 0 mm 2 m/s 755 mmHg 57%
    04:00 +21°C° 0 mm 2 m/s 756 mmHg 60%
    05:00 +21°C° 0 mm 2 m/s 756 mmHg 62%
    06:00 +20°C° 0 mm 2 m/s 757 mmHg 64%
    07:00 +23°C° 0 mm 2 m/s 757 mmHg 58%
    08:00 +25°C° 0 mm 2 m/s 757 mmHg 52%
    09:00 +26°C° 0 mm 2 m/s 757 mmHg 46%
    10:00 +28°C° 0 mm 2 m/s 757 mmHg 42%
    11:00 +29°C° 0 mm 2 m/s 757 mmHg 39%
    12:00 +31°C° 0 mm 2 m/s 757 mmHg 35%
    13:00 +31°C° 0 mm 2 m/s 757 mmHg 33%
    14:00 +32°C° 0 mm 2 m/s 757 mmHg 32%
    15:00 +32°C° 0 mm 2 m/s 757 mmHg 31%
    16:00 +31°C° 0 mm 2 m/s 757 mmHg 35%
    17:00 +30°C° 0 mm 2 m/s 757 mmHg 38%
    18:00 +29°C° 0 mm 2 m/s 757 mmHg 42%
    19:00 +27°C° 0 mm 3 m/s 757 mmHg 45%
    20:00 +26°C° 0 mm 3 m/s 758 mmHg 49%
    21:00 +24°C° 0 mm 3 m/s 758 mmHg 53%
    22:00 +22°C° 0 mm 3 m/s 758 mmHg 56%
    23:00 +21°C° 0 mm 2 m/s 758 mmHg 59%
    Arată mai mult